CW4354 Weather Reports


time (UTC)temp
C
wind
direction
speed
KPH
gust
KPH
rain 1hr
cm
rain 24hr
cm
rain mn
cm
humidity
%
barometer
mb
20260510130051 12 0 0.0 0.0 0.00 0.71 0.00 97 1013.3
20260510124543 11 0 0.0 0.0 0.00 0.71 0.00 97 1013.3
20260510123042 11 0 0.0 0.0 0.00 0.71 0.00 97 1012.9
20260510121553 11 0 0.0 0.0 0.00 0.71 0.00 97 1012.7
20260510120040 11 0 0.0 0.0 0.00 0.71 0.00 98 1012.5
20260510114550 10 0 0.0 0.0 0.00 0.71 0.00 98 1012.4
20260510113045 10 0 0.0 0.0 0.00 0.71 0.00 98 1011.9
20260510111551 10 0 0.0 0.0 0.00 0.71 0.00 97 1012.1
20260510110053 10 0 0.0 0.0 0.00 0.71 0.00 98 1012.1
20260510104607 10 0 0.0 0.0 0.00 0.71 0.00 97 1011.9
20260510103052 9 0 0.0 0.0 0.00 0.71 0.00 97 1011.9
20260510101548 9 0 0.0 0.0 0.00 0.71 0.00 96 1011.7
20260510100056 10 0 0.0 0.0 0.00 0.71 0.00 96 1011.6
20260510094555 10 0 0.0 0.0 0.00 0.71 0.00 97 1011.5
20260510093051 10 0 0.0 0.0 0.00 0.71 0.00 97 1011.5
20260510091553 10 0 0.0 0.0 0.00 0.71 0.00 97 1011.6
20260510090054 10 0 0.0 0.0 0.00 0.71 0.00 97 1011.6
20260510084558 10 0 0.0 0.0 0.00 0.71 0.00 97 1011.7
20260510083052 10 0 0.0 0.0 0.00 0.71 0.00 97 1011.9
20260510081601 10 0 0.0 0.0 0.00 0.71 0.00 97 1011.9
20260510080047 10 0 0.0 0.0 0.00 0.71 0.00 96 1011.9
20260510074616 10 0 0.0 0.0 0.00 0.71 0.00 97 1011.5
20260510073048 10 0 0.0 0.0 0.00 0.71 0.00 97 1011.0
20260510071555 10 0 0.0 0.0 0.00 0.71 0.00 97 1010.9
20260510070051 11 0 0.0 0.0 0.00 0.71 0.00 97 1011.1
20260510064603 11 0 0.0 0.0 0.00 0.71 0.00 97 1011.2
20260510063056 11 0 0.0 0.0 0.00 0.71 0.00 97 1011.2
20260510061545 10 0 0.0 0.0 0.00 0.71 0.00 97 1011.4
20260510060051 10 0 0.0 0.0 0.00 0.71 0.00 97 1011.0
20260510054550 10 0 0.0 0.0 0.00 0.71 0.00 97 1010.9
20260510053050 10 0 0.0 0.0 0.00 0.71 0.00 97 1011.1
20260510051559 10 0 0.0 0.0 0.00 0.71 0.00 97 1011.1
20260510050047 10 0 0.0 0.0 0.00 0.71 0.00 97 1011.3
20260510044542 10 0 0.0 0.0 0.00 0.71 0.00 97 1011.3
20260510043055 9 0 0.0 0.0 0.00 0.71 0.00 97 1011.3
20260510041605 9 0 0.0 0.0 0.00 0.71 0.00 97 1011.4
20260510040049 8 0 0.0 0.0 0.00 0.71 0.00 97 1011.4
20260510034551 8 0 0.0 0.0 0.00 0.71 0.71 97 1011.2
20260510033050 8 0 0.0 0.0 0.00 0.71 0.71 97 1011.1
20260510031553 8 0 0.0 0.0 0.00 0.71 0.71 96 1011.1
20260510030050 8 0 0.0 0.0 0.00 0.71 0.71 95 1011.1
20260510024554 8 0 0.0 0.0 0.00 0.71 0.71 95 1010.8
20260510023049 8 0 0.0 0.0 0.00 0.71 0.71 95 1010.8
20260510021548 8 0 0.0 0.0 0.00 0.71 0.71 95 1010.9
20260510020053 8 0 0.0 0.0 0.00 0.71 0.71 95 1010.8
20260510014546 9 0 0.0 0.0 0.00 0.71 0.71 95 1010.9
20260510013055 9 0 0.0 0.0 0.00 0.71 0.71 94 1010.8
20260510011549 10 0 0.0 0.0 0.00 0.71 0.71 94 1010.7
20260510010058 10 0 0.0 0.0 0.00 0.71 0.71 93 1010.8
20260510004557 10 0 0.0 0.0 0.00 0.71 0.71 93 1010.4
20260510003050 11 0 0.0 0.0 0.00 0.71 0.71 93 1010.3
20260510001545 12 0 0.0 0.0 0.00 0.71 0.71 93 1010.1
20260510000055 12 0 0.0 0.0 0.00 0.71 0.71 94 1010.1
20260509234601 12 0 0.0 0.0 0.00 0.71 0.71 94 1010.2
20260509233048 12 0 0.0 0.0 0.00 0.71 0.71 93 1010.0
20260509231550 12 0 0.0 0.0 0.00 0.71 0.71 93 1009.9
20260509230049 13 0 0.0 0.0 0.00 0.71 0.71 93 1009.7
20260509224541 13 0 0.0 0.0 0.00 0.71 0.71 94 1009.9
20260509223049 13 0 0.0 0.0 0.00 0.71 0.71 93 1009.8
20260509221604 13 0 0.0 0.0 0.00 0.71 0.71 92 1009.9
20260509220100 13 0 0.0 0.0 0.00 0.71 0.71 94 1009.9
20260509214554 13 0 0.0 0.0 0.00 0.71 0.71 93 1010.1
20260509213050 13 0 0.0 0.0 0.03 0.71 0.71 94 1010.0
20260509211546 13 0 0.0 0.0 0.05 0.71 0.71 96 1010.1
20260509210054 12 0 0.0 0.0 0.08 0.71 0.71 96 1010.0
20260509204552 12 0 0.0 0.0 0.13 0.71 0.71 95 1010.0
20260509203054 12 0 0.0 0.0 0.18 0.69 0.69 94 1010.2
20260509201541 12 0 0.0 0.0 0.20 0.66 0.66 94 1010.2
20260509200050 12 0 0.0 0.0 0.20 0.64 0.64 94 1010.4
20260509194544 12 0 0.0 0.0 0.23 0.58 0.58 93 1010.6
20260509193100 12 0 0.0 0.0 0.23 0.51 0.51 92 1011.1
20260509191609 12 0 0.0 0.0 0.25 0.46 0.46 93 1011.3
20260509184547 13 0 0.0 0.0 0.25 0.36 0.36 93 1011.3
20260509183044 13 0 0.0 0.0 0.23 0.28 0.28 92 1011.5
20260509181551 13 0 0.0 0.0 0.20 0.20 0.20 91 1011.3
20260509180042 13 0 0.0 0.0 0.13 0.13 0.13 90 1011.1
20260509174550 13 0 0.0 0.0 0.10 0.10 0.10 89 1011.0
20260509173055 15 0 0.0 0.0 0.05 0.05 0.05 84 1011.6
20260509171556 15 0 0.0 0.0 0.00 0.00 0.00 82 1011.7
20260509170045 16 0 0.0 0.0 0.00 0.00 0.00 79 1011.5
20260509164553 16 0 0.0 0.0 0.00 0.00 0.00 77 1011.2
20260509163106 16 0 0.0 0.0 0.00 0.00 0.00 75 1011.5
20260509161555 16 0 0.0 0.0 0.00 0.00 0.00 78 1011.5
20260509160048 16 0 0.0 0.0 0.00 0.00 0.00 76 1011.7
20260509154552 16 0 0.0 0.0 0.00 0.00 0.00 77 1011.8
20260509153049 15 0 0.0 0.0 0.00 0.00 0.00 78 1011.7
20260509151559 15 0 0.0 0.0 0.00 0.00 0.00 81 1012.0
20260509150051 14 0 0.0 0.0 0.00 0.00 0.00 80 1012.0
20260509144550 14 0 0.0 0.0 0.00 0.00 0.00 80 1011.9
20260509143045 13 0 0.0 0.0 0.00 0.00 0.00 83 1012.0
20260509141552 13 0 0.0 0.0 0.00 0.00 0.00 81 1011.9
20260509140050 13 0 0.0 0.0 0.00 0.00 0.00 79 1011.8
20260509134555 13 0 0.0 0.0 0.00 0.00 0.00 80 1011.6
20260509133048 12 0 0.0 0.0 0.00 0.00 0.00 83 1011.7
20260509131558 12 0 0.0 0.0 0.00 0.00 0.00 85 1011.7